| time (UTC) | temp C | wind direction | speed KPH | gust KPH | rain 1hr cm | rain 24hr cm | rain mn cm | humidity % | barometer mb |
| 20260906190930 | 30 | 149 | 3.2 | 8.0 | 0.00 | 0.00 | 0.00 | 70 | 1014.6 |
| 20260906190429 | 30 | 203 | 3.2 | 8.0 | 0.00 | 0.00 | 0.00 | 71 | 1014.4 |
| 20260906190159 | 30 | 115 | 1.6 | 4.8 | 0.00 | 0.00 | 0.00 | 70 | 1014.6 |
| 20260906185428 | 30 | 98 | 1.6 | 3.2 | 0.00 | 0.00 | 0.00 | 70 | 1014.8 |
| 20260906184928 | 30 | 205 | 0.0 | 3.2 | 0.00 | 0.00 | 0.00 | 69 | 1014.9 |
| 20260906184429 | 30 | 223 | 0.0 | 3.2 | 0.00 | 0.00 | 0.00 | 71 | 1014.9 |
| 20260906183929 | 30 | 212 | 0.0 | 3.2 | 0.00 | 0.00 | 0.00 | 70 | 1015.0 |
| 20260906183429 | 30 | 217 | 1.6 | 3.2 | 0.00 | 0.00 | 0.00 | 71 | 1015.0 |
| 20260906182933 | 30 | 247 | 1.6 | 6.4 | 0.00 | 0.00 | 0.00 | 69 | 1015.1 |
| 20260906182928 | 30 | 217 | 1.6 | 6.4 | 0.00 | 0.00 | 0.00 | 69 | 1015.0 |
| 20260906182202 | 30 | 147 | 1.6 | 8.0 | 0.00 | 0.00 | 0.00 | 69 | 1015.2 |
| 20260906181429 | 30 | 251 | 1.6 | 8.0 | 0.00 | 0.00 | 0.00 | 69 | 1015.3 |
| 20260906180929 | 30 | 148 | 3.2 | 8.0 | 0.00 | 0.00 | 0.00 | 69 | 1015.2 |
| 20260906180429 | 30 | 210 | 3.2 | 8.0 | 0.00 | 0.00 | 0.00 | 71 | 1015.4 |
| 20260906175928 | 30 | 262 | 4.8 | 8.0 | 0.00 | 0.00 | 0.00 | 70 | 1015.5 |
| 20260906175429 | 30 | 226 | 4.8 | 8.0 | 0.00 | 0.00 | 0.00 | 69 | 1015.4 |
| 20260906174928 | 30 | 90 | 4.8 | 11.3 | 0.00 | 0.00 | 0.00 | 68 | 1015.3 |
| 20260906174431 | 30 | 264 | 4.8 | 11.3 | 0.00 | 0.00 | 0.00 | 67 | 1015.5 |
| 20260906174203 | 30 | 102 | 3.2 | 8.0 | 0.00 | 0.00 | 0.00 | 68 | 1015.5 |
| 20260906173700 | 30 | 245 | 3.2 | 8.0 | 0.00 | 0.00 | 0.00 | 71 | 1015.5 |
| 20260906172929 | 29 | 128 | 3.2 | 8.0 | 0.00 | 0.00 | 0.00 | 72 | 1015.6 |
| 20260906172429 | 29 | 212 | 3.2 | 6.4 | 0.00 | 0.00 | 0.00 | 71 | 1015.6 |
| 20260906171929 | 29 | 230 | 3.2 | 6.4 | 0.00 | 0.00 | 0.00 | 72 | 1015.7 |
| 20260906171429 | 29 | 232 | 1.6 | 6.4 | 0.00 | 0.00 | 0.00 | 71 | 1015.9 |
| 20260906170929 | 29 | 257 | 1.6 | 6.4 | 0.00 | 0.00 | 0.00 | 72 | 1016.1 |
| 20260906170429 | 29 | 200 | 3.2 | 9.7 | 0.00 | 0.00 | 0.00 | 72 | 1016.1 |
| 20260906165929 | 29 | 266 | 1.6 | 9.7 | 0.00 | 0.00 | 0.00 | 71 | 1016.1 |
| 20260906165428 | 29 | 219 | 1.6 | 6.4 | 0.00 | 0.00 | 0.00 | 70 | 1016.2 |
| 20260906164928 | 29 | 241 | 3.2 | 6.4 | 0.00 | 0.00 | 0.00 | 70 | 1016.2 |
| 20260906164430 | 29 | 167 | 3.2 | 8.0 | 0.00 | 0.00 | 0.00 | 71 | 1016.1 |
| 20260906163930 | 29 | 150 | 3.2 | 8.0 | 0.00 | 0.00 | 0.00 | 70 | 1016.0 |
| 20260906163430 | 29 | 256 | 1.6 | 6.4 | 0.00 | 0.00 | 0.00 | 70 | 1016.0 |
| 20260906162930 | 29 | 262 | 0.0 | 1.6 | 0.00 | 0.00 | 0.00 | 71 | 1016.1 |
| 20260906162432 | 28 | 263 | 1.6 | 3.2 | 0.00 | 0.00 | 0.00 | 72 | 1016.1 |
| 20260906162428 | 28 | 262 | 0.0 | 3.2 | 0.00 | 0.00 | 0.00 | 71 | 1016.1 |
| 20260906161700 | 28 | 230 | 1.6 | 3.2 | 0.00 | 0.00 | 0.00 | 71 | 1016.2 |
| 20260906160929 | 28 | 197 | 1.6 | 4.8 | 0.00 | 0.00 | 0.00 | 71 | 1016.3 |
| 20260906160700 | 28 | 224 | 1.6 | 4.8 | 0.00 | 0.00 | 0.00 | 74 | 1016.2 |
| 20260906160159 | 28 | 148 | 1.6 | 3.2 | 0.00 | 0.00 | 0.00 | 73 | 1016.2 |
| 20260906155429 | 28 | 262 | 1.6 | 3.2 | 0.00 | 0.00 | 0.00 | 75 | 1016.2 |
| 20260906154929 | 28 | 226 | 1.6 | 4.8 | 0.00 | 0.00 | 0.00 | 73 | 1016.3 |
| 20260906154429 | 28 | 205 | 1.6 | 4.8 | 0.00 | 0.00 | 0.00 | 73 | 1016.4 |
| 20260906153929 | 28 | 274 | 1.6 | 3.2 | 0.00 | 0.00 | 0.00 | 75 | 1016.3 |
| 20260906153429 | 27 | 257 | 1.6 | 6.4 | 0.00 | 0.00 | 0.00 | 75 | 1016.3 |
| 20260906152928 | 27 | 162 | 3.2 | 6.4 | 0.00 | 0.00 | 0.00 | 74 | 1016.2 |
| 20260906152428 | 27 | 226 | 3.2 | 6.4 | 0.00 | 0.00 | 0.00 | 76 | 1016.1 |
| 20260906151928 | 27 | 135 | 3.2 | 6.4 | 0.00 | 0.00 | 0.00 | 76 | 1016.2 |
| 20260906151429 | 27 | 169 | 1.6 | 4.8 | 0.00 | 0.00 | 0.00 | 77 | 1016.2 |
| 20260906150929 | 27 | 150 | 0.0 | 4.8 | 0.00 | 0.00 | 0.00 | 78 | 1016.1 |
| 20260906150429 | 27 | 236 | 0.0 | 3.2 | 0.00 | 0.00 | 0.00 | 81 | 1016.2 |
| 20260906145929 | 26 | 225 | 0.0 | 3.2 | 0.00 | 0.00 | 0.00 | 81 | 1016.2 |
| 20260906145428 | 26 | 247 | 1.6 | 4.8 | 0.00 | 0.00 | 0.00 | 81 | 1016.2 |
| 20260906144933 | 26 | 250 | 1.6 | 6.4 | 0.00 | 0.00 | 0.00 | 81 | 1016.1 |
| 20260906144928 | 26 | 243 | 1.6 | 6.4 | 0.00 | 0.00 | 0.00 | 81 | 1016.1 |
| 20260906143930 | 26 | 159 | 1.6 | 4.8 | 0.00 | 0.00 | 0.00 | 81 | 1016.2 |
| 20260906143430 | 26 | 246 | 1.6 | 4.8 | 0.00 | 0.00 | 0.00 | 80 | 1016.1 |
| 20260906142930 | 26 | 242 | 1.6 | 4.8 | 0.00 | 0.00 | 0.00 | 81 | 1016.2 |
| 20260906142429 | 26 | 278 | 1.6 | 6.4 | 0.00 | 0.00 | 0.00 | 81 | 1016.2 |
| 20260906141929 | 26 | 310 | 1.6 | 6.4 | 0.00 | 0.00 | 0.00 | 81 | 1016.2 |
| 20260906141430 | 26 | 316 | 3.2 | 6.4 | 0.00 | 0.00 | 0.00 | 82 | 1016.0 |
| 20260906140929 | 25 | 238 | 3.2 | 8.0 | 0.00 | 0.00 | 0.00 | 82 | 1015.8 |
| 20260906140429 | 25 | 241 | 4.8 | 8.0 | 0.00 | 0.00 | 0.00 | 82 | 1015.6 |
| 20260906135934 | 25 | 146 | 4.8 | 11.3 | 0.00 | 0.00 | 0.00 | 82 | 1015.6 |
| 20260906135930 | 25 | 106 | 4.8 | 11.3 | 0.00 | 0.00 | 0.00 | 83 | 1015.6 |
| 20260906134929 | 25 | 82 | 3.2 | 9.7 | 0.00 | 0.00 | 0.00 | 83 | 1015.5 |
| 20260906134430 | 25 | 91 | 3.2 | 8.0 | 0.00 | 0.00 | 0.00 | 83 | 1015.6 |
| 20260906133929 | 25 | 122 | 4.8 | 8.0 | 0.00 | 0.00 | 0.00 | 83 | 1015.6 |
| 20260906133429 | 25 | 65 | 4.8 | 11.3 | 0.00 | 0.00 | 0.00 | 83 | 1015.7 |
| 20260906133200 | 25 | 113 | 3.2 | 11.3 | 0.00 | 0.00 | 0.00 | 82 | 1015.7 |
| 20260906132428 | 25 | 137 | 4.8 | 11.3 | 0.00 | 0.00 | 0.00 | 82 | 1015.7 |
| 20260906131928 | 25 | 140 | 4.8 | 11.3 | 0.00 | 0.00 | 0.00 | 82 | 1015.6 |
| 20260906131433 | 25 | 127 | 4.8 | 11.3 | 0.00 | 0.00 | 0.00 | 82 | 1015.5 |
| 20260906131429 | 25 | 101 | 4.8 | 11.3 | 0.00 | 0.00 | 0.00 | 82 | 1015.6 |
| 20260906130428 | 25 | 162 | 4.8 | 11.3 | 0.00 | 0.00 | 0.00 | 82 | 1015.5 |
| 20260906125929 | 25 | 124 | 4.8 | 11.3 | 0.00 | 0.00 | 0.00 | 82 | 1015.5 |
| 20260906125429 | 25 | 236 | 3.2 | 9.7 | 0.00 | 0.00 | 0.00 | 82 | 1015.5 |
| 20260906125200 | 25 | 79 | 3.2 | 11.3 | 0.00 | 0.00 | 0.00 | 83 | 1015.3 |
| 20260906124432 | 25 | 110 | 4.8 | 12.9 | 0.00 | 0.00 | 0.00 | 82 | 1015.3 |
| 20260906123932 | 25 | 72 | 6.4 | 12.9 | 0.00 | 0.00 | 0.00 | 82 | 1015.2 |
| 20260906123431 | 25 | 133 | 4.8 | 9.7 | 0.00 | 0.00 | 0.00 | 83 | 1015.1 |
| 20260906123202 | 25 | 112 | 4.8 | 9.7 | 0.00 | 0.00 | 0.00 | 83 | 1015.1 |
| 20260906122431 | 25 | 116 | 3.2 | 9.7 | 0.00 | 0.00 | 0.00 | 82 | 1015.0 |
| 20260906121931 | 25 | 141 | 3.2 | 9.7 | 0.00 | 0.00 | 0.00 | 82 | 1015.0 |
| 20260906121432 | 25 | 105 | 3.2 | 9.7 | 0.00 | 0.00 | 0.00 | 82 | 1015.0 |
| 20260906120931 | 25 | 210 | 3.2 | 6.4 | 0.00 | 0.00 | 0.00 | 82 | 1014.9 |
| 20260906120432 | 25 | 134 | 3.2 | 8.0 | 0.00 | 0.00 | 0.00 | 82 | 1014.8 |
| 20260906115932 | 25 | 128 | 4.8 | 9.7 | 0.00 | 0.00 | 0.00 | 82 | 1014.7 |
| 20260906115431 | 25 | 131 | 4.8 | 9.7 | 0.00 | 0.00 | 0.00 | 81 | 1014.6 |
| 20260906114930 | 25 | 164 | 4.8 | 11.3 | 0.00 | 0.00 | 0.00 | 81 | 1014.6 |
| 20260906114431 | 25 | 108 | 4.8 | 11.3 | 0.00 | 0.00 | 0.00 | 81 | 1014.6 |
| 20260906114202 | 25 | 62 | 4.8 | 11.3 | 0.00 | 0.00 | 0.00 | 81 | 1014.4 |
| 20260906113702 | 25 | 113 | 6.4 | 11.3 | 0.00 | 0.00 | 0.00 | 81 | 1014.3 |
| 20260906112931 | 25 | 106 | 6.4 | 11.3 | 0.00 | 0.00 | 0.00 | 81 | 1014.3 |
| 20260906112702 | 25 | 124 | 6.4 | 11.3 | 0.00 | 0.00 | 0.00 | 81 | 1014.3 |
| 20260906112201 | 25 | 118 | 6.4 | 12.9 | 0.00 | 0.00 | 0.00 | 81 | 1014.4 |
| 20260906111432 | 25 | 126 | 6.4 | 12.9 | 0.00 | 0.00 | 0.00 | 81 | 1014.3 |
| 20260906110931 | 25 | 153 | 6.4 | 11.3 | 0.00 | 0.00 | 0.00 | 81 | 1014.3 |
| 20260906110431 | 25 | 148 | 6.4 | 11.3 | 0.00 | 0.00 | 0.00 | 81 | 1014.4 |
| 20260906105931 | 25 | 141 | 6.4 | 11.3 | 0.00 | 0.00 | 0.00 | 81 | 1014.3 |
| 20260906105701 | 25 | 113 | 6.4 | 11.3 | 0.00 | 0.00 | 0.00 | 81 | 1014.2 |
| 20260906104931 | 25 | 184 | 6.4 | 12.9 | 0.00 | 0.00 | 0.00 | 82 | 1014.4 |
| 20260906104431 | 25 | 82 | 8.0 | 14.5 | 0.00 | 0.00 | 0.00 | 82 | 1014.3 |
| 20260906104202 | 25 | 134 | 6.4 | 14.5 | 0.00 | 0.00 | 0.00 | 82 | 1014.4 |
| 20260906103431 | 25 | 97 | 6.4 | 11.3 | 0.00 | 0.00 | 0.00 | 82 | 1014.4 |
| 20260906102931 | 25 | 158 | 6.4 | 11.3 | 0.00 | 0.00 | 0.00 | 81 | 1014.3 |
| 20260906102431 | 25 | 157 | 6.4 | 11.3 | 0.00 | 0.00 | 0.00 | 81 | 1014.3 |
| 20260906102203 | 25 | 63 | 6.4 | 12.9 | 0.00 | 0.00 | 0.00 | 81 | 1014.3 |
| 20260906101431 | 25 | 130 | 6.4 | 12.9 | 0.00 | 0.00 | 0.00 | 81 | 1014.2 |
| 20260906101203 | 25 | 137 | 6.4 | 11.3 | 0.00 | 0.00 | 0.00 | 80 | 1014.3 |
| 20260906100431 | 25 | 157 | 6.4 | 12.9 | 0.00 | 0.00 | 0.00 | 80 | 1014.2 |
| 20260906095931 | 25 | 150 | 6.4 | 14.5 | 0.00 | 0.00 | 0.00 | 79 | 1014.2 |
| 20260906095431 | 26 | 162 | 8.0 | 17.7 | 0.00 | 0.00 | 0.00 | 79 | 1014.1 |
| 20260906095202 | 26 | 98 | 9.7 | 17.7 | 0.00 | 0.00 | 0.00 | 79 | 1014.1 |
| 20260906094432 | 26 | 49 | 9.7 | 17.7 | 0.00 | 0.00 | 0.00 | 79 | 1014.1 |
| 20260906093931 | 26 | 83 | 8.0 | 16.1 | 0.00 | 0.00 | 0.00 | 79 | 1014.2 |
| 20260906093431 | 26 | 146 | 8.0 | 16.1 | 0.00 | 0.00 | 0.00 | 79 | 1014.2 |
| 20260906092931 | 26 | 98 | 8.0 | 14.5 | 0.00 | 0.00 | 0.00 | 78 | 1014.2 |
| 20260906092431 | 26 | 128 | 8.0 | 14.5 | 0.00 | 0.00 | 0.00 | 78 | 1014.2 |
| 20260906091931 | 26 | 117 | 8.0 | 14.5 | 0.00 | 0.00 | 0.00 | 78 | 1014.2 |
| 20260906091431 | 25 | 89 | 6.4 | 12.9 | 0.00 | 0.00 | 0.00 | 79 | 1014.3 |
| 20260906090931 | 25 | 89 | 6.4 | 12.9 | 0.00 | 0.00 | 0.00 | 79 | 1014.3 |
| 20260906090431 | 25 | 103 | 6.4 | 14.5 | 0.00 | 0.00 | 0.00 | 79 | 1014.4 |
| 20260906085931 | 25 | 112 | 6.4 | 14.5 | 0.00 | 0.00 | 0.00 | 79 | 1014.4 |
| 20260906085431 | 25 | 127 | 6.4 | 14.5 | 0.00 | 0.00 | 0.00 | 79 | 1014.3 |
| 20260906084931 | 26 | 158 | 8.0 | 14.5 | 0.00 | 0.00 | 0.00 | 79 | 1014.4 |
| 20260906084431 | 26 | 108 | 6.4 | 12.9 | 0.00 | 0.00 | 0.00 | 78 | 1014.3 |
| 20260906083931 | 26 | 150 | 6.4 | 12.9 | 0.00 | 0.00 | 0.00 | 78 | 1014.3 |
| 20260906083431 | 26 | 117 | 6.4 | 12.9 | 0.00 | 0.00 | 0.00 | 78 | 1014.3 |
| 20260906082931 | 26 | 84 | 6.4 | 16.1 | 0.00 | 0.00 | 0.00 | 77 | 1014.2 |
| 20260906082431 | 26 | 105 | 8.0 | 16.1 | 0.00 | 0.00 | 0.00 | 77 | 1014.2 |
| 20260906081931 | 26 | 207 | 8.0 | 16.1 | 0.00 | 0.00 | 0.00 | 76 | 1014.2 |
| 20260906081431 | 26 | 148 | 8.0 | 16.1 | 0.00 | 0.00 | 0.00 | 76 | 1014.1 |
| 20260906080932 | 26 | 91 | 8.0 | 17.7 | 0.00 | 0.00 | 0.00 | 77 | 1014.1 |
| 20260906080431 | 26 | 87 | 8.0 | 17.7 | 0.00 | 0.00 | 0.00 | 77 | 1014.2 |
| 20260906075931 | 26 | 88 | 6.4 | 14.5 | 0.00 | 0.00 | 0.00 | 77 | 1014.1 |
| 20260906075434 | 26 | 106 | 6.4 | 17.7 | 0.00 | 0.00 | 0.00 | 78 | 1014.2 |
| 20260906074931 | 26 | 64 | 6.4 | 17.7 | 0.00 | 0.00 | 0.00 | 78 | 1014.3 |
| 20260906074707 | 26 | 85 | 6.4 | 14.5 | 0.00 | 0.00 | 0.00 | 76 | 1014.2 |
| 20260906074431 | 26 | 127 | 6.4 | 11.3 | 0.00 | 0.00 | 0.00 | 77 | 1014.2 |
| 20260906073703 | 26 | 65 | 8.0 | 16.1 | 0.00 | 0.00 | 0.00 | 75 | 1014.1 |
| 20260906072931 | 27 | 108 | 6.4 | 16.1 | 0.00 | 0.00 | 0.00 | 74 | 1014.1 |
| 20260906072431 | 27 | 102 | 6.4 | 14.5 | 0.00 | 0.00 | 0.00 | 74 | 1014.0 |
| 20260906072203 | 27 | 94 | 8.0 | 16.1 | 0.00 | 0.00 | 0.00 | 73 | 1014.0 |
| 20260906071431 | 27 | 59 | 8.0 | 16.1 | 0.00 | 0.00 | 0.00 | 73 | 1014.0 |
| 20260906070931 | 27 | 103 | 8.0 | 22.5 | 0.00 | 0.00 | 0.00 | 73 | 1013.9 |
| 20260906070431 | 27 | 122 | 6.4 | 22.5 | 0.00 | 0.00 | 0.00 | 74 | 1014.1 |
| 20260906065930 | 27 | 79 | 6.4 | 17.7 | 0.00 | 0.00 | 0.00 | 74 | 1014.2 |
| 20260906065430 | 27 | 112 | 8.0 | 14.5 | 0.00 | 0.00 | 0.00 | 75 | 1014.3 |
| 20260906064931 | 26 | 44 | 6.4 | 14.5 | 0.00 | 0.00 | 0.00 | 75 | 1014.3 |
| 20260906064430 | 26 | 118 | 8.0 | 16.1 | 0.00 | 0.00 | 0.00 | 76 | 1014.3 |
| 20260906063931 | 26 | 107 | 6.4 | 16.1 | 0.00 | 0.00 | 0.00 | 76 | 1014.3 |
| 20260906063430 | 26 | 60 | 4.8 | 9.7 | 0.00 | 0.00 | 0.00 | 77 | 1014.3 |
| 20260906062931 | 26 | 60 | 6.4 | 14.5 | 0.00 | 0.00 | 0.00 | 78 | 1014.3 |
| 20260906062431 | 26 | 50 | 6.4 | 14.5 | 0.00 | 0.00 | 0.00 | 79 | 1014.3 |
| 20260906061931 | 26 | 60 | 6.4 | 11.3 | 0.00 | 0.00 | 0.00 | 80 | 1014.3 |
| 20260906061432 | 26 | 76 | 6.4 | 12.9 | 0.00 | 0.00 | 0.00 | 80 | 1014.4 |
| 20260906060930 | 26 | 110 | 6.4 | 16.1 | 0.00 | 0.00 | 0.00 | 80 | 1014.4 |
| 20260906060431 | 26 | 72 | 6.4 | 16.1 | 0.00 | 0.00 | 0.00 | 80 | 1014.6 |
| 20260906055931 | 26 | 90 | 6.4 | 11.3 | 0.00 | 0.00 | 0.00 | 79 | 1014.4 |
| 20260906055431 | 26 | 81 | 6.4 | 11.3 | 0.00 | 0.00 | 0.00 | 79 | 1014.6 |
| 20260906054931 | 26 | 63 | 6.4 | 11.3 | 0.00 | 0.00 | 0.00 | 78 | 1014.6 |
| 20260906054431 | 26 | 98 | 4.8 | 9.7 | 0.00 | 0.00 | 0.00 | 78 | 1014.6 |
| 20260906053931 | 26 | 67 | 4.8 | 9.7 | 0.00 | 0.00 | 0.00 | 78 | 1014.4 |
| 20260906053431 | 26 | 77 | 4.8 | 9.7 | 0.00 | 0.00 | 0.00 | 77 | 1014.6 |
| 20260906052931 | 26 | 65 | 4.8 | 12.9 | 0.00 | 0.00 | 0.00 | 77 | 1014.4 |
| 20260906052431 | 26 | 67 | 4.8 | 12.9 | 0.00 | 0.00 | 0.00 | 76 | 1014.6 |
| 20260906051931 | 26 | 71 | 4.8 | 8.0 | 0.00 | 0.00 | 0.00 | 75 | 1014.4 |
| 20260906051431 | 27 | 61 | 4.8 | 8.0 | 0.00 | 0.00 | 0.00 | 74 | 1014.4 |
| 20260906050931 | 27 | 60 | 3.2 | 8.0 | 0.00 | 0.00 | 0.00 | 74 | 1014.4 |
| 20260906050430 | 27 | 69 | 3.2 | 8.0 | 0.00 | 0.00 | 0.00 | 73 | 1014.4 |
| 20260906045931 | 27 | 80 | 3.2 | 8.0 | 0.00 | 0.00 | 0.00 | 71 | 1014.3 |
| 20260906045431 | 27 | 96 | 3.2 | 8.0 | 0.00 | 0.00 | 0.00 | 71 | 1014.2 |
| 20260906045202 | 28 | 123 | 3.2 | 8.0 | 0.00 | 0.00 | 0.00 | 71 | 1014.3 |
| 20260906044704 | 28 | 148 | 3.2 | 8.0 | 0.00 | 0.00 | 0.00 | 70 | 1014.2 |
| 20260906043932 | 28 | 80 | 4.8 | 8.0 | 0.00 | 0.00 | 0.00 | 69 | 1014.1 |
| 20260906043432 | 28 | 77 | 4.8 | 8.0 | 0.00 | 0.00 | 0.00 | 68 | 1014.1 |
| 20260906042931 | 28 | 141 | 3.2 | 8.0 | 0.00 | 0.00 | 0.00 | 68 | 1014.2 |
| 20260906042702 | 28 | 124 | 3.2 | 8.0 | 0.00 | 0.00 | 0.00 | 68 | 1014.1 |
| 20260906041931 | 28 | 101 | 3.2 | 6.4 | 0.00 | 0.00 | 0.00 | 68 | 1014.2 |
| 20260906041431 | 28 | 84 | 3.2 | 6.4 | 0.00 | 0.00 | 0.00 | 67 | 1014.1 |
| 20260906040929 | 28 | 82 | 3.2 | 6.4 | 0.00 | 0.00 | 0.00 | 67 | 1014.1 |
| 20260906040429 | 28 | 132 | 4.8 | 9.7 | 0.00 | 0.00 | 0.00 | 67 | 1014.1 |
| 20260906035929 | 28 | 119 | 4.8 | 9.7 | 0.00 | 0.00 | 0.00 | 67 | 1014.1 |
| 20260906035429 | 28 | 120 | 4.8 | 9.7 | 0.00 | 0.00 | 0.00 | 67 | 1014.2 |
| 20260906034929 | 28 | 114 | 4.8 | 8.0 | 0.00 | 0.00 | 0.00 | 68 | 1014.2 |
| 20260906034429 | 28 | 148 | 3.2 | 8.0 | 0.00 | 0.00 | 0.00 | 68 | 1014.2 |
| 20260906033930 | 28 | 124 | 3.2 | 8.0 | 0.00 | 0.00 | 0.00 | 68 | 1014.3 |
| 20260906033429 | 28 | 98 | 3.2 | 8.0 | 0.00 | 0.00 | 0.00 | 68 | 1014.2 |
| 20260906032932 | 28 | 145 | 4.8 | 9.7 | 0.00 | 0.00 | 0.00 | 68 | 1014.0 |
| 20260906032429 | 28 | 117 | 4.8 | 9.7 | 0.00 | 0.00 | 0.00 | 68 | 1014.0 |
| 20260906031929 | 29 | 78 | 4.8 | 9.7 | 0.00 | 0.00 | 0.00 | 68 | 1013.9 |
| 20260906031429 | 29 | 97 | 4.8 | 9.7 | 0.00 | 0.00 | 0.00 | 68 | 1013.9 |
| 20260906030929 | 29 | 114 | 4.8 | 9.7 | 0.00 | 0.00 | 0.00 | 68 | 1013.7 |
| 20260906030659 | 29 | 91 | 4.8 | 9.7 | 0.00 | 0.00 | 0.00 | 68 | 1013.6 |
| 20260906025928 | 29 | 158 | 4.8 | 9.7 | 0.00 | 0.00 | 0.00 | 67 | 1013.5 |
| 20260906025428 | 29 | 60 | 4.8 | 9.7 | 0.00 | 0.00 | 0.00 | 67 | 1013.6 |
| 20260906024928 | 29 | 133 | 3.2 | 9.7 | 0.00 | 0.00 | 0.00 | 67 | 1013.6 |
| 20260906024429 | 29 | 143 | 3.2 | 9.7 | 0.00 | 0.00 | 0.00 | 67 | 1013.5 |
| 20260906023930 | 29 | 221 | 4.8 | 9.7 | 0.00 | 0.00 | 0.00 | 66 | 1013.4 |
| 20260906023429 | 29 | 152 | 4.8 | 9.7 | 0.00 | 0.00 | 0.00 | 66 | 1013.3 |
| 20260906023200 | 29 | 101 | 3.2 | 8.0 | 0.00 | 0.00 | 0.00 | 66 | 1013.4 |
| 20260906022429 | 29 | 141 | 3.2 | 8.0 | 0.00 | 0.00 | 0.00 | 66 | 1013.2 |
| 20260906021928 | 30 | 115 | 3.2 | 8.0 | 0.00 | 0.00 | 0.00 | 66 | 1013.1 |
| 20260906021429 | 30 | 143 | 3.2 | 8.0 | 0.00 | 0.00 | 0.00 | 66 | 1013.1 |
| 20260906020929 | 30 | 83 | 3.2 | 8.0 | 0.00 | 0.00 | 0.00 | 65 | 1013.0 |
| 20260906020429 | 30 | 89 | 4.8 | 8.0 | 0.00 | 0.00 | 0.00 | 65 | 1013.0 |
| 20260906020159 | 30 | 99 | 3.2 | 8.0 | 0.00 | 0.00 | 0.00 | 65 | 1012.8 |
| 20260906015428 | 30 | 141 | 1.6 | 6.4 | 0.00 | 0.00 | 0.00 | 65 | 1012.8 |
| 20260906014929 | 30 | 127 | 3.2 | 8.0 | 0.00 | 0.00 | 0.00 | 65 | 1012.7 |
| 20260906014428 | 30 | 94 | 3.2 | 8.0 | 0.00 | 0.00 | 0.00 | 65 | 1012.7 |
| 20260906013929 | 30 | 78 | 1.6 | 4.8 | 0.00 | 0.00 | 0.00 | 65 | 1012.6 |
| 20260906013915 | 30 | 165 | 1.6 | 6.4 | 0.00 | 0.00 | 0.00 | 64 | 1012.4 |
| 20260906013859 | 30 | 116 | 1.6 | 6.4 | 0.00 | 0.00 | 0.00 | 64 | 1012.5 |
| 20260906012429 | 30 | 109 | 1.6 | 4.8 | 0.00 | 0.00 | 0.00 | 64 | 1012.3 |
| 20260906011928 | 30 | 108 | 1.6 | 6.4 | 0.00 | 0.00 | 0.00 | 64 | 1012.2 |
| 20260906011428 | 31 | 108 | 1.6 | 6.4 | 0.00 | 0.00 | 0.00 | 63 | 1012.2 |
| 20260906011200 | 31 | 93 | 1.6 | 6.4 | 0.00 | 0.00 | 0.00 | 63 | 1012.1 |
| 20260906010429 | 31 | 103 | 1.6 | 4.8 | 0.00 | 0.00 | 0.00 | 63 | 1011.9 |
| 20260906005928 | 31 | 96 | 1.6 | 3.2 | 0.00 | 0.00 | 0.00 | 62 | 1011.9 |
| 20260906005428 | 31 | 156 | 1.6 | 4.8 | 0.00 | 0.00 | 0.00 | 61 | 1011.9 |
| 20260906005202 | 32 | 212 | 1.6 | 4.8 | 0.00 | 0.00 | 0.00 | 61 | 1011.9 |
| 20260906004429 | 32 | 134 | 1.6 | 3.2 | 0.00 | 0.00 | 0.00 | 60 | 1012.1 |
| 20260906003929 | 32 | 134 | 1.6 | 6.4 | 0.00 | 0.00 | 0.00 | 59 | 1012.2 |
| 20260906003429 | 33 | 133 | 3.2 | 8.0 | 0.00 | 0.00 | 0.00 | 57 | 1012.2 |
| 20260906002930 | 33 | 128 | 3.2 | 8.0 | 0.00 | 0.00 | 0.00 | 56 | 1012.2 |
| 20260906002428 | 34 | 114 | 1.6 | 4.8 | 0.00 | 0.00 | 0.00 | 55 | 1012.3 |
| 20260906001928 | 34 | 110 | 1.6 | 4.8 | 0.00 | 0.00 | 0.00 | 54 | 1012.3 |
| 20260906001428 | 35 | 151 | 0.0 | 3.2 | 0.00 | 0.00 | 0.00 | 53 | 1012.3 |
| 20260906000928 | 35 | 159 | 0.0 | 4.8 | 0.00 | 0.00 | 0.00 | 52 | 1012.3 |
| 20260906000428 | 35 | 157 | 1.6 | 4.8 | 0.00 | 0.00 | 0.00 | 52 | 1012.3 |
| 20260906000159 | 35 | 129 | 3.2 | 6.4 | 0.00 | 0.00 | 0.00 | 53 | 1012.4 |
| 20260905235429 | 35 | 248 | 3.2 | 11.3 | 0.00 | 0.00 | 0.00 | 52 | 1012.3 |
| 20260905235159 | 35 | 175 | 4.8 | 14.5 | 0.00 | 0.00 | 0.00 | 51 | 1012.2 |
| 20260905234428 | 35 | 168 | 4.8 | 14.5 | 0.00 | 0.00 | 0.00 | 51 | 1012.2 |
| 20260905233931 | 35 | 207 | 4.8 | 11.3 | 0.00 | 0.00 | 0.00 | 50 | 1012.1 |
| 20260905233431 | 35 | 207 | 6.4 | 12.9 | 0.00 | 0.00 | 0.00 | 50 | 1011.9 |
| 20260905232931 | 35 | 224 | 8.0 | 14.5 | 0.00 | 0.00 | 0.00 | 50 | 1011.9 |
| 20260905232431 | 35 | 213 | 6.4 | 14.5 | 0.00 | 0.00 | 0.00 | 49 | 1011.9 |
| 20260905231931 | 35 | 252 | 6.4 | 14.5 | 0.00 | 0.00 | 0.00 | 50 | 1011.9 |
| 20260905231431 | 35 | 94 | 4.8 | 14.5 | 0.00 | 0.00 | 0.00 | 51 | 1011.8 |
| 20260905230931 | 35 | 167 | 4.8 | 11.3 | 0.00 | 0.00 | 0.00 | 53 | 1011.8 |
| 20260905230430 | 35 | 163 | 6.4 | 11.3 | 0.00 | 0.00 | 0.00 | 52 | 1011.8 |
| 20260905230201 | 35 | 160 | 8.0 | 16.1 | 0.00 | 0.00 | 0.00 | 52 | 1011.9 |
| 20260905225431 | 35 | 132 | 6.4 | 16.1 | 0.00 | 0.00 | 0.00 | 52 | 1011.8 |
| 20260905225201 | 35 | 138 | 6.4 | 14.5 | 0.00 | 0.00 | 0.00 | 53 | 1011.9 |
| 20260905224431 | 35 | 176 | 6.4 | 16.1 | 0.00 | 0.00 | 0.00 | 54 | 1011.9 |
| 20260905223932 | 35 | 158 | 6.4 | 16.1 | 0.00 | 0.00 | 0.00 | 52 | 1011.9 |
| 20260905223431 | 35 | 124 | 8.0 | 16.1 | 0.00 | 0.00 | 0.00 | 54 | 1011.9 |
| 20260905222931 | 35 | 52 | 9.7 | 17.7 | 0.00 | 0.00 | 0.00 | 55 | 1011.9 |
| 20260905222431 | 35 | 60 | 8.0 | 17.7 | 0.00 | 0.00 | 0.00 | 53 | 1011.9 |
| 20260905221931 | 35 | 110 | 8.0 | 14.5 | 0.00 | 0.00 | 0.00 | 53 | 1011.9 |
| 20260905221431 | 35 | 207 | 8.0 | 17.7 | 0.00 | 0.00 | 0.00 | 55 | 1011.9 |
| 20260905220931 | 35 | 122 | 8.0 | 17.7 | 0.00 | 0.00 | 0.00 | 53 | 1011.8 |
| 20260905220431 | 35 | 141 | 8.0 | 14.5 | 0.00 | 0.00 | 0.00 | 54 | 1011.9 |
| 20260905215931 | 35 | 71 | 9.7 | 20.9 | 0.00 | 0.00 | 0.00 | 55 | 1011.9 |
| 20260905215702 | 35 | 105 | 9.7 | 20.9 | 0.00 | 0.00 | 0.00 | 53 | 1011.9 |
| 20260905215202 | 35 | 92 | 9.7 | 19.3 | 0.00 | 0.00 | 0.00 | 55 | 1011.8 |
| 20260905214431 | 35 | 131 | 9.7 | 19.3 | 0.00 | 0.00 | 0.00 | 54 | 1011.8 |
| 20260905213931 | 35 | 92 | 9.7 | 19.3 | 0.00 | 0.00 | 0.00 | 53 | 1011.9 |
| 20260905213700 | 35 | 110 | 8.0 | 19.3 | 0.00 | 0.00 | 0.00 | 54 | 1011.9 |
| 20260905212929 | 35 | 217 | 9.7 | 19.3 | 0.00 | 0.00 | 0.00 | 54 | 1012.2 |
| 20260905212429 | 35 | 134 | 9.7 | 19.3 | 0.00 | 0.00 | 0.00 | 55 | 1012.3 |
| 20260905211929 | 35 | 127 | 9.7 | 19.3 | 0.00 | 0.00 | 0.00 | 54 | 1012.4 |
| 20260905211429 | 35 | 229 | 9.7 | 22.5 | 0.00 | 0.00 | 0.00 | 52 | 1012.4 |
| 20260905210930 | 35 | 137 | 9.7 | 22.5 | 0.00 | 0.00 | 0.00 | 52 | 1012.5 |
| 20260905210429 | 35 | 110 | 9.7 | 20.9 | 0.00 | 0.00 | 0.00 | 54 | 1012.6 |
| 20260905205928 | 35 | 104 | 9.7 | 25.7 | 0.00 | 0.00 | 0.00 | 53 | 1012.7 |
| 20260905205429 | 35 | 75 | 8.0 | 25.7 | 0.00 | 0.00 | 0.00 | 53 | 1012.8 |
| 20260905204929 | 35 | 63 | 6.4 | 11.3 | 0.00 | 0.00 | 0.00 | 57 | 1012.9 |
| 20260905204428 | 35 | 100 | 8.0 | 12.9 | 0.00 | 0.00 | 0.00 | 58 | 1012.9 |
| 20260905203931 | 35 | 113 | 9.7 | 17.7 | 0.00 | 0.00 | 0.00 | 54 | 1012.9 |
| 20260905203429 | 35 | 219 | 8.0 | 17.7 | 0.00 | 0.00 | 0.00 | 54 | 1013.0 |
| 20260905202929 | 35 | 143 | 8.0 | 16.1 | 0.00 | 0.00 | 0.00 | 53 | 1013.2 |
| 20260905202429 | 35 | 120 | 6.4 | 14.5 | 0.00 | 0.00 | 0.00 | 57 | 1013.2 |
| 20260905201929 | 35 | 145 | 9.7 | 17.7 | 0.00 | 0.00 | 0.00 | 55 | 1013.4 |
| 20260905201428 | 35 | 63 | 9.7 | 17.7 | 0.00 | 0.00 | 0.00 | 57 | 1013.4 |
| 20260905200929 | 35 | 42 | 6.4 | 19.3 | 0.00 | 0.00 | 0.00 | 55 | 1013.5 |
| 20260905200429 | 35 | 82 | 8.0 | 19.3 | 0.00 | 0.00 | 0.00 | 57 | 1013.5 |
| 20260905195929 | 35 | 107 | 8.0 | 16.1 | 0.00 | 0.00 | 0.00 | 58 | 1013.7 |
| 20260905195429 | 35 | 59 | 9.7 | 17.7 | 0.00 | 0.00 | 0.00 | 56 | 1013.7 |
| 20260905194929 | 35 | 68 | 8.0 | 17.7 | 0.00 | 0.00 | 0.00 | 58 | 1013.9 |
| 20260905194429 | 35 | 66 | 6.4 | 12.9 | 0.00 | 0.00 | 0.00 | 57 | 1013.9 |
| 20260905194201 | 35 | 43 | 6.4 | 12.9 | 0.00 | 0.00 | 0.00 | 55 | 1014.2 |
| 20260905193429 | 35 | 131 | 9.7 | 17.7 | 0.00 | 0.00 | 0.00 | 57 | 1014.2 |
| 20260905192929 | 35 | 70 | 9.7 | 20.9 | 0.00 | 0.00 | 0.00 | 55 | 1014.3 |
| 20260905192429 | 35 | 74 | 9.7 | 20.9 | 0.00 | 0.00 | 0.00 | 54 | 1014.4 |
| 20260905191929 | 35 | 58 | 8.0 | 19.3 | 0.00 | 0.00 | 0.00 | 56 | 1014.4 |
| 20260905191429 | 35 | 112 | 6.4 | 16.1 | 0.00 | 0.00 | 0.00 | 56 | 1014.6 |